Powrót do katalogu

GONETS D1 6

AktywnyŁącznośćPO
NORAD 24730·PAYLOAD·🇷🇺 Russia

Wystrzelony Feb 14, 1997 z Plesetsk Cosmodrome

Loading…

Następne Przeloty (najbliższe 24 godziny)

TLE

ŚwieżeSource: Space-Track

Epoka: Sep 14, 2026, 06:19 UTC

1 24730U 97006F   26257.26348328  .00000014  00000-0  19175-4 0  9998
2 24730  82.6098 200.4340 0003701 100.3340 259.8169 12.62500717362918

Śledź GONETS D1 6 w czasie rzeczywistym z AllMySat

Download on the App Store